Location: The Saddle
(36.8333°N, 80.3417°W)
Time: 06:57:05
(UTC-04:00)

Vanguard 2 Rocket - Pass Details

Date: 02 February 2023
Orbit: 555 x 3316 km, 32.9° (Epoch: 27 March)

Event Time Altitude Azimuth Distance (km) Brightness Sun altitude
Rises 10:35:06 0° 237° (WSW) 3,596 10.0 29.4°
Reaches altitude 10° 10:38:20 10° 228° (SW) 2,330 9.2 29.8°
Maximum altitude 10:42:48 31° 166° (SSE) 1,094 9.3 30.2°
Drops below altitude 10° 10:46:22 10° 102° (ESE) 1,844 9.2 30.6°
Sets 10:48:37 0° 91° (E) 2,720 9.7 30.8°
